Location: Ermatingen
(47.6706°N, 9.0857°E)
Time: 23:26:04
(UTC+00:00)

Resurs 01 Rocket - Pass Details

Date: 18 September 2020
Orbit: 633 x 645 km, 98.0° (Epoch: 31 October)

Event Time Altitude Azimuth Distance (km) Brightness Sun altitude
Exits shadow 20:56:48 23° 273° (W) 1,364 3.6 -32.1°
Drops below altitude 10° 21:00:07 10° 320° (NW) 2,052 5.1 -32.5°
Sets 21:02:44 0° 335° (NNW) 2,966 6.0 -32.8°
